Home   Weather   Citrus Heights   Past weeks
Flag for USA

Past Weather in Citrus Heights, California, USA — Yesterday and Last 2 Weeks

Now
75 °F

Sunny.


Feels Like: 77 °F
Forecast: 80 / 57 °F
Wind: 10 mph from Southwest

Location: Mather Field

Current Time: Jun 26, 2019 at 11:45:44 am

Latest Report: Jun 26, 2019 at 11:00 am


Visibility: 10 mi

Pressure: 29.92 "Hg

Humidity: 39%

Dew Point: 48 °F

Location of Citrus HeightsLocation

Past Weather in Citrus Heights — Graph

°F

Citrus Heights Temperature Yesterday

Maximum temperature yesterday: 91 °F (at 3:45 pm)
Minimum temperature yesterday: 57 °F (at 5:50 am)
Average temperature yesterday: 74 °F

High & Low Weather Summary for the Past Weeks

 TemperatureHumidityPressure
High102 °F (Jun 11, 3:45 pm)94% (Jun 14, 3:45 am)29.98 "Hg (Jun 14, 3:45 am)
Low54 °F (Jun 15, 3:45 am)13% (Jun 11, 5:45 pm)29.72 "Hg (Jun 16, 5:50 pm)
Average76 °F50%29.83 "Hg
* Reported Jun 11 10:50 am — Jun 26 10:00 am, Citrus Heights. Weather by CustomWeather, © 2019

Note: Actual official high and low records may vary slightly from our data, if they occured in-between our weather recording intervals... More about our weather records

Advertising

Citrus Heights Weather History for the Previous 24 Hours

Scroll right to see more
 ConditionsComfort  
Time TempWeatherWind HumidityBarometerVisibility
10:00 am
Wed, Jun 26
70 °FSunny.10 mph46%29.91 "Hg10 mi
8:45 am66 °FSunny.10 mph56%29.91 "Hg10 mi
7:45 am64 °FSunny.9 mph56%29.90 "Hg10 mi
7:00 am61 °FSunny.9 mph63%29.88 "Hg10 mi
5:45 am54 °FSunny.9 mph77%29.87 "Hg10 mi
4:45 am55 °FClear.9 mph72%29.85 "Hg10 mi
3:45 am55 °FClear.8 mph72%29.84 "Hg10 mi
2:45 am61 °FClear.8 mph59%29.84 "Hg10 mi
10:47 pm
Tue, Jun 25
64 °FPassing clouds.8 mph60%29.82 "Hg10 mi
9:45 pm70 °FPassing clouds.8 mph50%29.79 "Hg10 mi
8:45 pm73 °FPassing clouds.6 mph44%29.77 "Hg10 mi
7:45 pm81 °FPassing clouds.15 mph34%29.75 "Hg10 mi
6:50 pm84 °FPassing clouds.8 mph31%29.73 "Hg10 mi
5:45 pm88 °FPassing clouds.18 mph25%29.73 "Hg10 mi
4:55 pm90 °FSunny.17 mph21%29.74 "Hg10 mi
3:45 pm91 °FPassing clouds.14 mph20%29.75 "Hg10 mi
1:50 pm86 °FSunny.7 mph29%29.77 "Hg10 mi
1:15 pm86 °FSunny.8 mph31%29.78 "Hg10 mi
11:45 am81 °FSunny.9 mph39%29.79 "Hg10 mi
Weather by CustomWeather, © 2019

See weather overview